CZ-6A DEB, 55898

Orbit data source: Space-Track

CZ-6A DEB, 55898 is space debris in SSO originally from a launch on Fri, 11 Nov 2022 UTC launched from the Taiyaun Space Center, China (TSC). Debris objects in space refer to the collection of defunct objects orbiting the Earth. Examples of debris include non-operational satellites, rocket bodies, and fragments generated from explosions, collisions, or faulty payload assembly.

Loading next visibility...
Identifier
55898, 2022-151AAW
Orbit
SSO
Country
Flag of CNCN / PRC
Related business
Manufacturer
SAST
Mission
Spacecraft
Bus & Motor
Unknown
Mass
Unknown
Launch date (UTC)
2022-11-11 (3 years ago)
Launch vehicle
Unknown
Launch site
Taiyaun Space Center, China (TSC)
Object type
Payload
Rocket body
Debris
Shape & HBR
Unknown shape, 0.1 m
Radar Cross Section
Small (<0.1 m²)

Expand to show TLE details & history
Last TLE update: 15 hours ago

TLE from 15 hours ago
0 CZ-6A DEB
1 55898U 22151AAW 25350.27110258  .00001130  00000-0  61274-3 0  9995
2 55898  98.8192 348.9529 0057473 155.6433 204.7476 14.13585143153056
Epoch: 2025-12-16T06:30Z
TLE epoch observation values (Epoch: 2025-12-16T06:30:23.262Z)
Latitude
0.00004°
Longitude
166.19826°
Altitude
887.793 km
Speed
7.389 km/s
True Right ascension
23h 15m 48s
True Declination
0° 00' 00"
Sunlit
Object was in daylight at epoch
Visualization orbit readout
Latitude
Unknown
Longitude
Unknown
Altitude
Unknown
Speed
Unknown
Apparent Right ascension
Unknown
Apparent Declination
Unknown
Sunlit
N/A
Visualization observer readout
Local Sidereal Time
19:54:38
Azimuth
Unknown
Elevation
Unknown
Doppler factor
Unknown
Orbital elements
Apogee altitude
885.811 km
Perigee altitude
802.792 km
Semi-major axis
7,222.439 km
Eccentricity
0.00575
Inclination
98.8192°
RAAN
348.9529°
Arg. of periapsis
155.6433°
True anomaly
204.47369°
Mean anomaly
204.7476°
Eccentric anomaly
204.61047°
Mean motion
3.53604 °/min
Orbital period
101.81 mins
BSTAR
0.00061274
Loading maneuver chart data...
Computing Atmospheric mass density...
Loading historical data...
Loading historical data...
Loading historical data...
Loading historical data...
Loading historical data...
Loading historical data...
Loading historical data...

Documentation

Showing up to 5 results
|